Flag for Cameroon Weather past 2 weeks in Yaoundé, Cameroon

Now
79 °F

Thunderstorms. Broken clouds.


Feels Like: 82 °F
Forecast: 67 / 77 °F
Wind: 2 mph from Northeast

Location: Yaounde Airport

Current Time: Oct 23, 2014 at 5:04:55 PM

Latest Report: Oct 23, 2014 at 4:00 PM


Visibility: N/A

Pressure: 29.89 "Hg

Humidity: 79%

Dew point: 72 °F

Location of YaoundéLocation

Historic Weather in Yaoundé — Graph

°F

Yaoundé temperature yesterday

Maximum temperature yesterday: 84 °F (at 1:00 PM)
Minimum temperature yesterday: 68 °F (at 2:00 AM)
Average temperature yesterday: 73 °F

Past Weeks' High & Low Weather Summary

 TemperatureHumidityPressure
High86 °F (Oct 10, 3:00 PM)100% (Oct 12, 1:00 AM)30.12 "Hg (Oct 12, 1:00 AM)
Low66 °F (Oct 12, 1:00 AM)55% (Oct 9, 2:00 PM)29.86 "Hg (Oct 8, 5:00 PM)
Average74 °F84%30.00 "Hg
* Reported Oct 8 5:00 PM — Oct 23 4:00 PM, Yaoundé, Weather by CustomWeather, © 2014

Note: Actual official high and low records may vary slightly from our data, if they occured in-between our weather recording intervals... More about our weather records

Advertising

Yaoundé weather history for previous 24 hours

 ConditionsComfort  
Time TempWeatherWind HumidityBarometerVisibility
4:00 PM
Oct 23
79 °FThunderstorms. Broken clouds.2 mph79%29.89 "HgN/A
3:00 PM79 °FThunderstorms. Broken clouds.2 mph79%29.95 "HgN/A
1:00 PM75 °FThunderstorms. Broken clouds.3 mph89%30.01 "Hg5 mi
12:00 PM79 °FBroken clouds.5 mph70%30.04 "HgN/A
11:00 AM81 °FPartly sunny.2 mph70%30.07 "HgN/A
10:00 AM79 °FPartly sunny.No wind74%30.09 "HgN/A
9:00 AM75 °FPartly sunny.No wind78%30.09 "HgN/A
8:00 AM72 °FPartly sunny.3 mph88%30.07 "Hg5 mi
7:00 AM70 °FBroken clouds.3 mph94%30.04 "Hg4 mi
6:00 AM70 °FBroken clouds.5 mph94%30.01 "Hg4 mi
5:00 AM70 °FPartly cloudy.5 mph94%30.01 "Hg4 mi
4:00 AM70 °FPartly cloudy.2 mph94%30.01 "Hg4 mi
3:00 AM70 °FPartly cloudy.5 mph94%30.01 "Hg4 mi
2:00 AM72 °FPartly cloudy.2 mph94%30.01 "HgN/A
1:00 AM72 °FPartly cloudy.3 mph94%30.01 "HgN/A
12:00 AM72 °FPartly cloudy.No wind94%30.01 "HgN/A
11:00 PM
Oct 22
72 °FPartly cloudy.5 mph94%30.01 "HgN/A
10:00 PM70 °FPartly cloudy.2 mph94%30.01 "HgN/A
9:00 PM70 °FPassing clouds.2 mph94%30.01 "HgN/A
8:00 PM70 °FPartly cloudy.No wind94%29.98 "HgN/A
7:00 PM72 °FThunderstorms. Partly cloudy.No wind88%29.98 "Hg4 mi
6:00 PM72 °FThunderstorms. Partly cloudy.7 mph88%29.98 "Hg4 mi
5:00 PM77 °FThunderstorms. Partly sunny.7 mph74%29.95 "HgN/A
Weather by CustomWeather, © 2014

See weather overviewHow to use our weather pages